TimeHST,TemperatureF,Dew PointF,Humidity,Sea Level PressureIn,VisibilityMPH,Wind Direction,Wind SpeedMPH,Gust SpeedMPH,PrecipitationIn,Events,Conditions,WindDirDegrees,DateUTC
12:53 AM,70.0,59.0,68,30.09,10.0,Calm,Calm,-,N/A,,Overcast,0,2013-01-23 10:53:00
1:27 AM,71.6,59.0,64,30.07,10.0,Variable,4.6,-,N/A,,Overcast,0,2013-01-23 11:27:00
1:53 AM,71.1,57.9,63,30.09,10.0,Calm,Calm,-,N/A,,Overcast,0,2013-01-23 11:53:00
2:53 AM,70.0,57.9,65,30.07,10.0,Calm,Calm,-,N/A,,Overcast,0,2013-01-23 12:53:00
3:53 AM,70.0,62.1,76,30.06,10.0,Variable,3.5,-,N/A,,Overcast,0,2013-01-23 13:53:00
4:20 AM,69.8,60.8,73,30.04,10.0,Variable,3.5,-,N/A,,Overcast,0,2013-01-23 14:20:00
4:31 AM,69.8,60.8,73,30.04,10.0,ENE,3.5,-,N/A,,Overcast,70,2013-01-23 14:31:00
4:43 AM,68.0,60.8,78,30.04,10.0,ENE,3.5,-,N/A,,Overcast,60,2013-01-23 14:43:00
4:53 AM,68.0,60.1,76,30.06,10.0,ENE,3.5,-,N/A,,Overcast,70,2013-01-23 14:53:00
5:04 AM,68.0,59.0,73,30.05,10.0,ENE,4.6,-,N/A,,Overcast,70,2013-01-23 15:04:00
5:22 AM,68.0,59.0,73,30.05,10.0,ENE,3.5,-,N/A,,Mostly Cloudy,70,2013-01-23 15:22:00
5:53 AM,69.1,59.0,70,30.08,10.0,ENE,3.5,-,N/A,,Mostly Cloudy,60,2013-01-23 15:53:00
6:53 AM,66.0,57.9,75,30.09,10.0,Calm,Calm,-,N/A,,Mostly Cloudy,0,2013-01-23 16:53:00
7:53 AM,68.0,57.9,70,30.10,10.0,Calm,Calm,-,N/A,,Clear,0,2013-01-23 17:53:00
8:17 AM,71.6,60.8,69,30.08,10.0,Variable,4.6,-,N/A,,Partly Cloudy,0,2013-01-23 18:17:00
8:53 AM,72.0,61.0,68,30.11,10.0,East,5.8,-,N/A,,Overcast,80,2013-01-23 18:53:00
9:01 AM,71.6,60.8,69,30.09,10.0,Variable,4.6,-,N/A,,Overcast,0,2013-01-23 19:01:00
9:31 AM,73.4,62.6,69,30.10,10.0,Variable,5.8,-,N/A,,Mostly Cloudy,0,2013-01-23 19:31:00
9:53 AM,73.0,63.0,71,30.12,10.0,ENE,8.1,-,N/A,,Overcast,70,2013-01-23 19:53:00
10:53 AM,77.0,63.0,62,30.11,10.0,Variable,5.8,-,N/A,,Scattered Clouds,0,2013-01-23 20:53:00
11:41 AM,78.8,62.6,57,30.07,10.0,ENE,8.1,-,N/A,,Mostly Cloudy,60,2013-01-23 21:41:00
11:51 AM,78.8,62.6,57,30.07,10.0,East,8.1,-,N/A,,Mostly Cloudy,80,2013-01-23 21:51:00
11:53 AM,77.0,63.0,62,30.09,10.0,East,8.1,-,N/A,,Mostly Cloudy,90,2013-01-23 21:53:00
12:03 PM,77.0,62.6,61,30.07,10.0,Variable,5.8,-,N/A,,Mostly Cloudy,0,2013-01-23 22:03:00
12:41 PM,78.8,62.6,57,30.06,10.0,ESE,8.1,16.1,N/A,,Mostly Cloudy,110,2013-01-23 22:41:00
12:53 PM,79.0,63.0,58,30.07,10.0,SE,10.4,16.1,N/A,,Mostly Cloudy,130,2013-01-23 22:53:00
1:53 PM,78.1,64.0,62,30.05,10.0,Variable,4.6,-,N/A,,Mostly Cloudy,0,2013-01-23 23:53:00
2:53 PM,78.1,64.0,62,30.04,10.0,SE,8.1,-,N/A,,Clear,130,2013-01-24 00:53:00
3:53 PM,77.0,64.0,64,30.04,10.0,SE,6.9,-,N/A,,Clear,130,2013-01-24 01:53:00
4:53 PM,77.0,62.1,60,30.05,10.0,SE,8.1,-,N/A,,Overcast,140,2013-01-24 02:53:00
5:53 PM,73.9,66.0,76,30.06,9.0,Variable,4.6,-,N/A,,Overcast,0,2013-01-24 03:53:00
6:45 PM,71.6,64.4,78,30.05,10.0,Calm,Calm,-,N/A,,Mostly Cloudy,0,2013-01-24 04:45:00
6:53 PM,72.0,64.0,76,30.07,10.0,Variable,3.5,-,N/A,,Scattered Clouds,0,2013-01-24 04:53:00
7:16 PM,71.6,62.6,73,30.06,10.0,Calm,Calm,-,N/A,,Scattered Clouds,0,2013-01-24 05:16:00
7:53 PM,71.1,64.0,78,30.08,10.0,Calm,Calm,-,N/A,,Overcast,0,2013-01-24 05:53:00
8:53 PM,70.0,64.9,84,30.09,10.0,Calm,Calm,-,N/A,,Partly Cloudy,0,2013-01-24 06:53:00
9:53 PM,69.1,64.0,84,30.11,10.0,Calm,Calm,-,N/A,,Unknown,0,2013-01-24 07:53:00
10:53 PM,69.1,63.0,81,30.10,10.0,Calm,Calm,-,N/A,,Unknown,0,2013-01-24 08:53:00
11:53 PM,69.1,64.0,84,30.09,10.0,Calm,Calm,-,N/A,,Unknown,0,2013-01-24 09:53:00